Regional Weather Roundup
Issued by NWS State College, PA

Home | Current Version | Previous Version | Graphics & Text | Print | Product List | Glossary Off
Versions: 1 2 3 4 5 6 7 8 9 10 11 12 13 14 15 16 17 18 19 20 21 22 23 24 25 26 27 28 29 30 31 32 33 34 35 36 37 38 39 40 41 42 43 44 45 46 47 48 49 50

688
ASUS41 KCTP 281003
RWRCTP

REGIONAL WEATHER ROUNDUP
NATIONAL WEATHER SERVICE STATE COLLEGE PA
600 AM EDT WED JUN 28 2017

Note: "fair" indicates few or no clouds below 12,000 feet with no
significant weather and/or obstructions to visibility.

* = STATION THAT DOES NOT REPORT PRECIPITATION /E.G. RAIN...SNOW...ETC/
    THUNDER OR FOG.

PAZ002>004-007>009-013>016-020>023-029>032-281100-
WESTERN PENNSYLVANIA

CITY           SKY/WX    TMP DP  RH WIND       PRES   REMARKS
ERIE           CLEAR     58  46  64 S9        30.10R
MEADVILLE      CLEAR     53  46  77 SW6       30.13R
FRANKLIN*      CLEAR     48  41  76 SW7       30.14R
NEW CASTLE     FAIR      46  46 100 CALM      30.16R
BEAVER COUNTY  NOT AVBL
BUTLER*        CLEAR     46  45  93 CALM      30.15S
PITTSBURGH INT PTCLDY    50  47  89 CALM      30.15R
PITTSBURGH     CLEAR     50  47  89 S5        30.15R
INDIANA*       CLEAR     48  46  93 CALM      30.19R
LATROBE        CLEAR     46  46 100 CALM      30.17R
WASHINGTON CO* CLEAR     43  41  93 CALM      30.18R
$$

PAZ004>006-010>012-017>019-024>028-033>037-041-042-045-046-049>053-281100-
CENTRAL PENNSYLVANIA

CITY           SKY/WX    TMP DP  RH WIND       PRES   REMARKS
BRADFORD       MOCLDY    49  45  86 VRB3      30.13R
DUBOIS         CLEAR     48  43  82 SW3       30.14R
CLEARFIELD     FOG       45  45 100 SW3       30.16R VSB 3/4
JOHNSTOWN      CLEAR     51  45  79 SW7       30.17R
ALTOONA        CLEAR     49  47  93 CALM      30.17R
STATE COLLEGE  CLEAR     50  46  87 SW6       30.14S
WILLIAMSPORT   FOG       51  50  96 CALM      30.13R VSB 1/4
SELINSGROVE    CLEAR     48  48 100 CALM      30.14R
FT INDIANTOWN  CLEAR     50  49  99 CALM      30.13R
CAPITAL CITY   CLEAR     55  48  77 CALM      30.14R
HARRISBURG     PTCLDY    55  51  86 CALM      30.13R
YORK           CLEAR     49  49 100 CALM      30.14R
$$

PAZ038>040-043-044-047-048-054-055-060>062-067>071-281100-
EASTERN PENNSYLVANIA

CITY           SKY/WX    TMP DP  RH WIND       PRES   REMARKS
SCRANTON       CLEAR     50  49  96 CALM      30.11R
MOUNT POCONO   CLEAR     47  47 100 W6        30.12R
ALLENTOWN      CLEAR     53  48  83 SW5       30.11R
QUAKERTOWN*    SUNNY     54  50  87 CALM      30.13R
READING        CLEAR     53  53 100 CALM      30.12R
LANCASTER      CLEAR     54  50  86 W6        30.13R
COATESVILLE    SUNNY     55  50  82 W7        30.15R
POTTSTOWN      CLEAR     52  50  93 CALM      30.14R
BLUE BELL      CLEAR     52  52 100 CALM      30.13R
DOYLESTOWN     CLEAR     54  50  86 CALM      30.11R
WILLOW GROVE   NOT AVBL
NORTH PHILA    CLEAR     61  50  67 NW7       30.12S
PHILADELPHIA   CLEAR     62  49  62 NW7       30.12R
$$




USA.gov is the U.S. government's official web portal to all federal, state and local government web resources and services.